Theta_e
332 331 331 332 332 332 333 332 326 324 326 327 329 331 333 334 333 332 332 331 332 332 331 331 330 330 331 331 329 328 326 321 320 319 317 320 326 329 329 330 329 326 323 321 323 325 326 327 327 326 326 325 326 325 323 322 322 320 317 316 315 312
334 332 332 332 332 332 333 332 327 327 329 328 330 331 332 333 334 334 334 333 334 333 332 331 331 331 331 331 329 325 324 322 319 318 317 318 323 328 330 330 331 329 327 323 324 327 328 328 328 328 327 327 327 327 326 325 324 322 320 319 317 316
335 334 333 333 332 332 333 333 329 328 330 329 330 331 331 333 333 333 333 334 334 334 333 332 332 331 330 331 329 325 324 323 321 319 317 317 319 324 329 331 331 331 330 326 326 328 329 329 330 329 328 328 328 328 327 326 324 323 322 321 319 318
335 335 335 335 334 332 332 333 329 328 330 330 331 331 331 332 334 333 333 333 334 335 333 331 331 330 330 331 329 326 325 323 321 320 319 318 317 320 326 330 330 330 331 329 328 329 330 330 330 330 328 328 328 328 327 326 324 323 323 322 318 318
335 336 335 336 334 332 332 332 329 328 330 331 331 331 331 332 334 333 333 333 333 334 333 330 330 330 330 329 326 325 325 323 321 320 320 319 318 318 320 325 326 328 330 331 331 330 331 330 330 330 328 328 328 328 328 326 325 324 323 322 318 318
335 335 336 336 335 333 332 332 330 329 330 331 331 331 331 331 332 333 332 331 331 332 332 329 331 330 328 325 324 324 323 322 320 319 319 319 319 318 318 319 321 323 326 330 331 331 332 331 331 330 329 328 328 329 329 328 327 324 324 324 318 318
335 335 336 336 335 334 333 333 330 329 330 331 331 331 331 330 330 330 329 329 330 331 331 330 330 328 325 324 324 323 322 321 320 319 319 319 319 319 318 318 318 318 322 327 330 331 332 332 331 330 329 328 327 329 330 329 328 325 324 324 319 317
335 335 336 336 335 335 334 333 330 328 330 331 331 332 330 328 327 327 327 328 330 330 330 328 328 326 324 324 323 322 321 320 320 319 319 319 318 318 318 318 319 318 319 323 327 330 332 331 330 330 329 327 327 329 330 329 328 325 322 324 325 320
334 335 336 336 335 335 334 333 331 328 330 331 332 332 329 328 327 327 327 328 329 329 328 327 327 326 324 324 323 322 320 320 321 320 318 318 318 318 318 318 321 320 319 321 325 330 331 331 330 330 329 328 328 329 330 329 328 325 321 324 329 322
333 334 336 336 335 335 333 333 330 328 330 331 332 331 329 329 328 327 327 328 329 329 328 328 328 327 325 324 323 322 320 322 324 322 319 319 319 319 318 320 322 323 321 321 325 330 330 330 330 330 329 329 329 330 330 329 328 326 323 323 327 324
331 334 335 335 335 334 333 333 330 327 331 332 332 331 330 329 328 327 327 328 330 330 329 329 329 328 326 325 324 323 323 324 326 325 323 322 321 320 320 322 324 325 323 322 327 330 329 329 329 329 329 330 330 330 330 328 327 326 325 324 326 326
330 334 335 334 334 334 333 332 329 327 330 331 331 331 330 329 328 326 327 328 329 329 329 328 329 328 327 326 326 326 326 326 326 327 326 325 324 323 323 325 325 326 325 325 328 330 329 328 328 328 330 330 330 330 330 328 327 326 326 325 325 324
331 334 335 335 334 334 333 332 329 327 328 330 331 331 328 328 328 328 328 328 329 329 329 329 329 328 328 328 327 327 327 327 326 327 327 327 327 326 326 326 326 327 327 326 328 329 329 328 328 329 329 330 330 330 329 328 327 326 326 324 322 322
332 334 334 334 334 333 333 332 330 328 328 328 331 330 327 328 329 329 330 329 328 329 329 329 329 328 328 328 327 326 326 326 327 327 327 327 328 327 327 327 327 328 328 328 327 328 328 328 328 328 329 330 329 329 328 328 327 326 325 322 322 323
333 334 335 334 334 334 332 331 329 329 329 328 330 329 327 328 329 330 330 329 327 326 327 328 328 328 327 327 328 327 326 327 327 327 326 327 328 328 328 328 328 329 329 329 328 328 328 328 328 328 329 329 328 328 328 328 328 326 325 323 324 324
333 334 335 334 334 334 332 329 328 329 328 328 329 327 326 329 329 330 330 328 326 324 326 327 328 329 327 327 327 326 326 326 328 327 327 327 328 328 328 328 329 329 330 329 329 329 328 328 329 329 329 328 327 328 328 328 327 326 325 324 325 324
333 334 335 335 334 333 331 329 328 329 328 328 328 325 326 329 330 330 328 326 325 326 327 327 328 328 328 328 326 326 326 325 327 327 327 327 327 328 328 328 328 329 329 328 328 329 328 328 329 329 329 328 327 328 328 328 327 326 326 326 325 325
334 335 335 335 334 332 330 328 328 328 328 329 327 325 327 329 330 329 326 324 325 328 328 328 327 326 327 328 327 326 326 326 326 327 327 327 327 328 327 327 327 328 328 328 327 327 327 329 330 329 328 328 328 328 327 327 327 327 326 326 326 326
335 336 335 335 333 331 330 329 327 327 329 330 327 327 328 329 329 327 324 324 326 328 328 327 327 325 326 328 327 326 326 326 327 327 327 327 327 327 326 327 327 327 328 327 326 326 327 329 329 328 328 328 328 327 327 327 328 327 326 326 326 326
335 335 335 334 333 332 331 329 327 328 329 329 327 327 328 329 330 326 324 325 326 329 328 326 326 325 325 326 326 327 327 327 327 327 327 326 326 326 326 327 327 327 328 327 326 327 328 329 328 328 328 328 327 327 327 327 327 326 326 326 326 326
335 335 334 334 334 333 331 330 330 329 330 328 326 327 327 329 329 326 324 326 328 329 328 327 326 325 325 326 326 327 327 327 327 327 327 326 325 326 326 327 327 327 327 327 327 328 328 328 328 328 328 328 327 327 327 327 327 326 326 326 326 326
335 335 335 334 333 333 331 331 331 330 330 328 326 327 327 327 327 326 326 326 328 328 327 327 326 326 326 325 326 326 327 327 327 327 327 326 326 326 326 327 326 327 327 327 327 328 328 327 328 328 327 327 327 327 327 327 326 325 324 324 324 324
334 334 335 334 333 332 332 331 330 330 328 327 327 327 326 326 327 327 327 326 327 327 327 327 326 326 326 326 327 327 327 327 327 327 328 327 326 326 326 327 326 326 327 327 328 328 328 328 328 327 327 327 327 327 327 325 324 322 321 321 321 322
333 334 335 334 333 332 331 331 329 328 327 326 326 326 325 327 328 326 326 326 326 326 327 327 327 327 327 327 328 328 328 328 327 328 328 327 327 326 326 327 326 326 326 327 328 328 328 328 328 327 328 327 327 327 326 324 322 322 322 322 321 321
333 335 334 333 333 332 331 329 327 327 326 326 326 325 327 328 327 325 326 326 326 327 328 328 327 326 327 327 327 327 328 328 327 328 328 328 327 326 326 327 327 326 326 327 327 328 328 328 328 327 327 327 327 327 326 324 323 323 323 323 322 321
333 334 333 333 333 332 330 327 327 327 326 325 326 326 328 327 325 325 326 327 327 328 328 327 325 325 326 327 327 327 327 328 328 328 328 327 327 326 325 327 327 326 326 326 326 327 328 328 328 327 327 326 326 327 325 324 324 324 323 322 321 320
332 333 333 332 332 330 327 327 328 327 325 326 326 326 325 325 326 326 327 327 327 327 326 325 324 325 327 327 327 327 327 327 327 327 327 326 327 326 325 327 327 326 326 327 326 327 328 328 328 327 326 325 325 326 324 323 325 325 324 322 321 320
332 333 331 330 329 327 326 326 326 325 326 327 325 324 325 326 327 327 327 326 325 325 325 325 325 326 326 326 326 327 327 326 326 326 326 326 326 325 325 327 327 327 326 327 327 327 327 328 328 327 326 326 325 325 324 323 323 324 324 324 322 319
333 332 329 328 327 326 326 326 325 326 326 325 324 325 325 326 326 326 325 325 325 325 326 325 325 324 325 326 326 327 326 326 326 326 326 326 326 326 326 327 328 328 327 327 327 328 327 327 327 327 327 326 325 325 324 323 323 323 323 324 323 320
332 330 328 327 327 326 326 326 326 326 325 324 324 325 325 325 325 324 324 324 325 325 325 325 325 324 324 325 326 326 325 325 325 326 326 326 325 326 326 327 328 328 327 327 328 328 327 327 327 327 326 326 326 325 324 324 324 323 323 323 323 322
329 328 327 327 327 327 327 326 326 325 324 324 323 323 324 324 324 324 324 324 324 324 323 323 324 324 324 324 324 325 324 324 324 324 325 325 325 325 326 326 327 327 327 327 327 327 327 327 327 327 326 327 327 326 325 324 324 324 323 323 323 323
327 327 328 327 327 327 326 326 325 324 325 323 321 321 323 322 321 321 321 320 320 319 318 318 319 321 323 323 323 323 323 323 324 324 324 324 325 325 325 325 326 326 326 326 326 326 326 326 327 327 327 327 327 326 325 324 324 324 323 322 322 322
326 327 327 326 326 326 325 325 324 325 323 320 318 318 318 317 316 316 316 315 315 315 315 316 317 318 320 321 322 322 322 321 322 324 324 324 324 325 325 325 325 326 325 325 326 326 326 327 326 327 328 327 327 327 326 325 324 324 323 322 321 322
326 326 326 325 325 325 324 324 324 323 319 317 317 315 314 314 315 316 316 316 316 316 316 317 318 318 319 319 319 320 321 321 322 323 323 323 324 324 325 325 325 326 325 325 325 326 326 327 327 327 327 327 327 326 325 324 324 324 323 322 321 321
326 326 325 325 325 324 323 323 323 321 318 317 316 314 314 315 316 318 318 317 318 318 318 318 317 318 319 318 317 317 319 320 322 322 322 322 322 323 324 325 325 326 326 326 326 326 326 326 326 326 326 326 327 326 324 323 324 323 322 322 321 321
326 325 324 324 324 323 322 323 323 321 319 318 316 315 314 315 317 318 318 319 319 319 319 318 316 316 318 318 317 317 319 320 322 322 322 321 321 321 322 324 325 325 325 326 326 325 324 325 326 326 325 326 326 325 324 323 323 323 322 322 321 320
325 324 324 323 323 323 323 324 324 322 320 318 316 315 314 315 317 318 318 320 320 319 318 316 315 316 317 318 317 317 319 320 321 323 322 322 321 320 319 322 324 324 324 325 325 324 322 323 325 325 325 325 325 325 324 323 323 322 321 322 320 319
Wind_Speed
23 22 20 19 17 16 14 12 12 14 14 15 15 15 16 16 17 17 16 17 18 18 18 17 16 14 13 12 13 14 13 12 12 14 18 20 21 20 17 16 14 12 11 9 7 7 7 8 9 10 11 12 13 14 14 14 15 16 16 16 14 11
25 23 21 19 18 17 16 14 14 15 15 15 15 15 16 16 16 16 17 16 17 18 17 16 15 13 12 11 11 13 14 12 11 12 15 18 20 20 18 17 15 14 12 10 8 6 7 8 9 10 11 11 12 13 13 13 14 15 14 14 13 12
26 25 23 20 19 19 18 16 15 16 16 16 16 16 16 16 16 16 15 15 15 16 16 14 13 12 11 11 12 13 14 13 12 11 13 15 18 19 19 18 16 14 13 11 10 8 7 8 10 10 11 11 12 12 13 13 14 14 13 12 11 12
27 26 24 21 21 21 19 18 17 17 17 16 16 16 15 15 16 15 15 14 14 14 15 13 12 11 10 10 11 12 12 12 11 10 10 12 14 17 18 18 16 15 13 12 11 9 7 8 9 11 11 11 12 13 13 13 13 13 12 11 11 12
27 26 25 23 22 22 21 19 18 18 18 17 16 16 16 16 16 15 15 14 14 14 14 12 11 11 10 9 9 10 10 10 10 10 10 10 11 13 15 17 17 16 15 13 12 11 8 7 9 11 11 11 12 13 13 12 12 12 11 10 10 12
25 26 26 24 23 22 21 20 19 19 18 17 16 16 16 16 16 15 15 13 13 14 13 12 11 11 9 8 8 9 9 9 9 9 9 9 9 11 12 14 16 16 15 14 13 12 9 7 9 10 11 11 12 12 11 11 11 11 10 8 9 11
24 25 25 23 23 22 21 21 20 18 18 17 16 16 16 15 15 15 14 13 13 13 13 12 11 10 9 8 8 7 8 7 8 9 9 9 9 9 10 12 13 14 15 15 14 12 10 8 8 10 10 10 11 11 10 10 10 10 8 8 9 10
23 24 25 23 22 22 21 20 19 18 17 16 16 16 15 14 14 14 14 14 14 13 12 11 10 10 9 8 7 6 6 6 7 7 8 8 8 8 8 10 10 12 13 14 13 12 10 9 9 9 8 9 10 9 9 9 9 8 8 9 9 7
22 23 24 23 22 22 21 19 18 17 17 17 16 15 14 14 15 16 15 14 13 12 11 10 9 9 8 7 6 6 5 6 7 6 6 6 7 7 8 9 9 10 12 13 13 12 11 10 9 9 8 8 9 9 9 9 7 7 8 10 9 5
24 24 23 22 22 21 21 20 18 18 18 18 16 16 16 17 16 17 16 14 13 11 10 9 9 8 7 6 5 5 5 6 6 6 6 6 6 7 8 9 8 8 10 12 13 12 11 10 9 8 8 9 9 9 9 8 6 7 8 9 8 6
25 25 23 22 22 24 24 22 20 19 18 16 16 17 18 18 17 17 16 14 12 11 10 9 9 8 7 6 5 5 5 6 6 6 6 6 6 6 8 8 8 8 9 11 13 13 11 10 9 8 8 9 8 9 8 7 6 7 7 8 8 6
25 26 25 23 24 25 24 21 20 20 17 15 16 16 15 17 18 18 16 14 12 12 11 9 8 8 7 6 6 6 6 6 6 6 6 6 6 6 7 8 8 8 8 10 12 13 11 9 8 7 8 9 9 9 8 7 6 6 7 7 7 6
25 25 25 25 25 23 22 20 19 19 18 17 15 14 13 16 19 18 16 14 13 11 11 10 8 8 8 7 7 7 7 7 7 7 7 7 7 7 8 8 8 8 7 8 10 12 11 9 8 7 8 9 10 10 8 7 6 6 6 7 7 7
25 25 25 25 24 22 22 20 17 18 18 18 15 12 13 16 18 16 15 14 12 10 9 9 9 8 9 9 9 8 8 8 8 8 8 7 8 8 8 8 7 7 7 7 8 10 11 10 9 9 9 9 9 9 9 7 5 6 6 7 8 7
24 24 25 24 23 22 20 17 15 16 17 17 14 11 14 17 16 15 14 13 12 11 9 9 9 9 10 10 10 9 8 8 8 9 9 8 8 8 8 8 8 7 6 6 7 9 10 11 10 10 9 8 7 7 8 7 6 7 7 8 8 8
22 23 25 24 23 21 19 16 15 16 16 15 13 13 17 16 15 15 14 14 14 12 9 8 8 9 10 10 9 9 8 8 8 9 10 9 9 8 8 9 8 8 6 5 6 9 10 11 10 9 8 8 7 7 8 7 7 8 8 8 8 8
22 22 24 24 23 20 17 16 15 15 14 13 12 15 17 15 15 15 14 15 14 12 9 8 8 8 10 10 10 10 9 7 7 8 9 10 10 9 9 9 9 9 7 6 7 9 10 9 8 7 7 9 9 9 8 8 9 9 8 8 7 7
21 22 22 21 21 19 16 15 15 13 12 12 14 16 16 15 16 16 15 15 14 11 9 8 8 9 10 11 11 10 9 7 6 7 8 9 10 10 9 9 9 9 9 8 8 9 10 9 8 9 11 11 10 10 10 9 9 9 8 8 7 7
20 22 21 17 17 18 15 14 15 13 12 14 17 16 16 16 16 15 13 13 13 11 10 9 9 9 10 11 11 10 9 8 7 7 7 9 10 10 9 9 9 9 11 10 8 9 11 11 11 13 14 13 12 11 11 11 9 9 8 7 7 6
21 21 19 15 16 18 15 13 15 14 14 16 18 17 17 16 15 14 13 12 12 12 11 10 9 9 9 10 10 9 9 9 8 7 7 8 9 10 9 8 9 10 12 11 11 11 12 13 15 16 16 14 13 12 12 11 10 9 8 8 7 6
20 21 19 17 17 18 16 14 15 15 16 18 18 18 17 16 15 15 13 13 12 12 12 11 10 9 9 10 10 10 10 9 9 8 8 9 10 10 9 8 9 11 13 13 14 14 14 14 17 19 17 16 15 13 13 12 10 9 9 9 8 6
18 19 20 19 18 17 16 15 16 17 19 19 19 19 17 15 15 14 13 12 11 11 11 11 10 10 10 11 11 11 11 10 10 9 9 10 11 11 10 9 10 13 14 13 15 16 15 15 18 20 19 19 17 14 12 12 11 10 9 9 8 6
19 20 20 19 18 17 15 15 16 18 20 20 18 18 16 14 13 13 12 11 11 11 11 10 10 10 10 11 12 12 11 10 10 10 9 10 11 11 11 10 11 12 14 14 15 17 16 16 18 20 19 18 16 14 13 12 12 11 10 9 8 7
21 21 20 18 18 17 17 16 17 18 19 19 17 16 15 15 14 13 12 11 11 11 11 11 10 9 9 10 10 11 11 11 12 11 10 10 11 11 12 12 12 12 13 15 16 17 17 16 17 18 17 15 14 13 12 12 13 13 10 9 10 10
20 20 19 19 20 20 19 19 20 20 20 19 17 16 16 16 14 12 11 10 10 10 10 10 10 9 9 10 10 10 10 11 12 12 11 10 11 12 13 12 13 13 12 13 15 17 18 17 17 17 16 15 13 9 10 14 14 13 10 10 12 12
21 20 20 20 22 22 22 22 22 22 20 19 18 17 15 14 12 11 10 10 10 10 10 10 10 9 9 10 10 10 10 12 13 12 11 11 12 13 13 12 13 14 12 12 13 15 18 18 18 16 14 14 10 7 14 18 13 11 11 11 13 13
22 21 21 22 24 25 24 24 23 21 19 17 15 14 12 11 10 10 10 10 10 10 9 8 8 8 8 9 9 10 11 12 12 12 11 12 13 13 13 13 14 15 13 12 12 14 17 18 18 16 13 12 7 6 15 17 12 13 13 11 12 13
22 22 23 24 25 25 24 23 22 20 17 15 13 12 11 11 11 11 10 10 9 8 7 6 6 7 7 8 9 10 11 11 11 11 11 13 13 14 13 13 15 16 15 13 12 13 16 16 17 16 13 11 5 5 13 14 10 12 14 13 13 13
23 25 25 26 25 24 23 21 20 18 16 14 13 12 12 12 12 11 10 9 8 7 6 6 6 6 6 7 8 10 10 10 10 11 12 12 13 14 14 14 15 16 15 13 11 12 14 14 14 14 14 12 7 7 13 14 9 9 12 13 13 14
26 26 26 25 24 22 21 20 18 17 15 15 14 14 14 13 12 11 10 8 8 7 7 6 6 6 6 6 7 8 8 8 9 10 11 11 12 13 14 15 15 15 14 13 12 11 12 12 11 12 14 14 11 10 14 16 12 11 11 11 12 13
26 26 26 25 23 22 21 19 17 16 15 15 15 16 15 14 13 11 10 9 7 7 6 6 6 6 6 6 7 7 7 8 8 9 9 10 11 12 13 14 14 14 14 13 13 12 12 12 11 12 14 15 14 11 11 13 13 13 12 10 12 14
27 26 25 24 23 22 21 19 17 17 16 15 15 16 15 14 13 12 10 9 7 6 6 5 5 5 6 6 6 7 7 7 7 7 8 9 11 11 11 13 13 13 13 13 13 12 12 13 12 13 14 15 16 12 8 9 11 12 12 9 10 14
28 26 25 24 24 23 20 19 18 17 16 14 15 16 15 14 13 12 11 9 8 7 6 5 5 5 5 6 6 7 6 6 7 8 8 9 10 11 11 12 13 12 12 12 11 11 11 12 11 12 13 13 14 11 8 7 8 9 11 9 10 14
27 25 25 25 24 22 20 19 19 18 16 15 16 17 16 15 15 14 13 11 11 9 8 7 7 6 6 6 6 7 7 7 8 9 9 9 9 9 9 10 12 12 11 10 9 9 10 11 11 11 12 11 11 10 9 7 6 8 10 9 10 13
26 25 25 25 24 21 21 21 20 19 17 16 17 18 17 16 15 14 12 12 11 11 10 8 7 7 7 6 6 7 8 9 9 9 9 9 8 8 8 9 10 10 10 8 8 8 10 11 11 11 11 10 11 11 10 9 7 7 8 8 8 9
25 25 26 25 23 22 22 23 21 19 18 17 17 18 17 16 14 12 12 11 11 10 9 7 6 7 7 7 7 7 9 9 10 9 9 8 7 7 8 9 9 9 9 9 9 9 10 10 11 11 10 10 12 12 11 10 10 9 8 8 6 7
25 26 26 25 23 22 23 23 21 19 18 17 17 17 16 15 14 13 12 11 10 9 8 6 5 7 7 7 7 8 9 10 11 10 9 9 7 6 8 10 11 10 9 10 9 9 9 9 10 10 10 10 13 13 11 11 11 10 9 8 6 5
Wind_Direction
186 187 188 185 183 178 172 168 165 162 162 162 158 157 155 155 155 151 153 152 149 148 147 147 148 148 146 147 148 150 156 158 162 170 177 185 189 191 194 195 194 194 190 184 179 161 142 128 123 118 112 108 102 99 95 90 87 86 84 83 88 97
190 191 190 186 184 180 174 170 167 166 166 166 163 163 163 163 162 160 160 159 156 152 149 148 149 149 148 148 147 146 148 153 160 170 179 186 191 193 195 198 198 197 195 189 189 179 153 136 129 123 116 110 104 99 93 88 86 86 84 83 84 90
194 194 191 188 187 183 179 174 171 172 171 170 170 171 171 171 170 167 166 165 161 155 150 150 150 150 152 153 151 147 147 149 157 167 178 187 192 196 197 198 200 199 199 196 194 193 168 148 138 130 124 114 105 98 91 88 88 87 86 85 83 86
196 195 192 189 189 187 183 178 175 177 175 174 174 175 175 175 173 170 171 170 166 161 156 154 151 153 161 162 157 153 150 150 156 164 173 184 192 199 201 202 206 205 204 202 199 199 184 162 147 137 131 120 106 97 91 91 89 86 87 87 85 84
196 196 194 191 191 190 187 182 179 180 179 179 178 177 176 174 173 172 174 170 168 168 162 158 155 158 167 168 165 162 157 151 153 161 168 178 190 199 204 205 209 210 206 205 204 203 194 170 152 143 135 123 108 98 94 93 88 86 87 86 84 84
196 198 196 193 192 191 191 187 184 183 182 183 179 176 175 172 172 174 176 174 173 171 164 162 161 165 172 173 175 169 159 153 153 160 167 174 185 195 203 206 208 209 207 206 206 205 194 166 151 146 137 126 110 102 98 93 89 85 88 90 84 84
198 200 196 194 193 191 192 191 187 184 184 183 177 176 175 172 175 178 179 179 177 172 166 166 168 174 179 179 177 164 152 152 154 159 166 171 179 189 198 204 207 207 205 204 206 205 192 162 149 149 139 128 114 107 103 95 91 88 89 89 79 82
199 200 197 195 194 193 193 192 187 184 186 186 181 179 177 174 175 176 177 176 174 171 168 169 170 176 181 178 168 151 143 148 153 155 163 168 174 184 194 200 202 203 201 200 201 198 187 165 151 152 145 130 119 114 106 96 94 94 93 90 80 79
199 199 198 195 196 197 194 192 189 186 189 190 186 181 176 172 169 170 171 169 169 171 170 169 168 173 178 174 155 143 144 147 148 145 153 162 170 179 188 194 195 196 195 193 193 188 182 171 160 158 148 134 126 119 107 98 98 96 92 96 96 88
200 200 197 195 197 197 196 194 190 191 193 191 186 182 176 170 166 166 166 163 163 166 167 166 168 173 170 159 146 146 152 149 143 139 146 155 167 176 179 185 188 189 187 185 185 179 176 176 172 161 144 136 131 120 110 107 106 99 94 99 102 93
203 203 199 197 198 198 200 198 195 197 196 191 188 188 180 167 164 163 161 160 160 163 165 164 167 169 159 149 154 160 160 155 151 149 150 152 161 171 173 176 178 178 178 180 179 173 174 180 177 160 143 140 134 124 121 121 118 111 104 102 103 102
206 205 203 201 202 202 202 199 201 201 197 199 198 196 183 163 163 164 160 161 163 166 166 164 164 163 159 159 170 174 172 172 170 164 158 159 165 170 172 171 170 167 168 175 177 177 177 181 183 165 149 147 141 136 133 132 127 118 112 110 115 120
209 206 206 204 202 204 201 197 203 203 200 208 208 205 191 167 166 165 162 165 170 172 167 162 165 165 169 176 183 184 183 188 187 176 171 176 178 177 177 174 171 167 163 169 178 184 184 186 189 177 165 163 157 149 142 140 133 123 122 121 121 118
211 205 208 207 203 202 199 195 200 204 203 208 214 214 193 175 171 166 163 168 173 178 170 161 167 174 180 187 191 190 192 198 193 184 184 187 189 190 189 184 180 173 166 169 176 186 189 192 192 186 184 177 163 152 145 140 133 130 129 119 115 112
210 205 207 209 206 200 196 197 202 207 203 204 218 207 180 178 176 166 165 169 174 184 179 164 168 182 189 190 192 192 195 198 195 191 189 191 194 197 198 196 190 180 175 178 178 182 186 192 197 199 196 182 161 148 140 134 131 136 130 121 119 118
213 208 209 209 207 201 197 202 207 213 208 205 214 189 173 181 178 168 168 170 176 185 183 172 175 185 189 187 188 189 188 184 186 189 190 191 194 198 201 201 198 190 185 188 185 181 184 190 195 200 198 179 161 149 140 132 132 135 131 129 125 121
217 216 218 210 203 202 198 202 207 211 209 204 200 181 176 180 173 170 172 174 182 188 186 185 186 186 185 187 188 188 184 173 172 182 189 192 195 197 198 199 201 196 191 188 185 185 185 186 185 181 174 163 156 151 145 137 136 139 137 136 131 127
218 222 227 213 197 194 193 201 207 207 205 195 186 181 181 176 169 170 173 179 188 193 193 193 192 191 191 191 192 190 183 174 170 177 186 192 193 195 195 199 199 194 191 183 180 185 179 172 164 154 150 150 151 150 146 144 146 147 145 144 142 139
218 224 230 219 196 189 191 201 204 203 198 185 181 184 183 178 173 173 175 183 194 198 198 196 196 200 199 194 193 192 185 180 181 180 186 191 191 194 195 198 194 188 190 181 171 176 168 158 154 147 144 143 144 147 148 151 153 150 150 153 154 150
218 223 226 220 203 194 195 199 198 198 192 182 181 184 183 182 181 181 185 194 200 201 202 202 201 202 204 202 199 197 191 189 190 186 187 190 192 193 190 193 191 185 190 181 161 164 163 157 154 146 142 141 142 147 150 152 152 150 152 155 158 157
216 221 219 214 208 200 198 196 192 193 190 183 183 183 183 186 189 194 200 205 206 206 207 207 206 206 210 213 213 210 202 196 195 192 191 190 189 189 184 188 187 179 186 179 159 161 166 163 157 147 143 144 143 146 148 148 146 143 145 148 153 155
209 217 214 208 208 202 197 196 191 190 189 184 183 186 188 190 194 202 206 208 208 207 210 213 216 217 218 219 219 217 210 202 198 197 198 193 187 185 182 182 180 174 180 175 161 163 167 167 161 152 149 146 141 141 141 141 138 135 135 136 142 142
201 211 214 207 203 198 194 193 190 188 186 184 184 187 189 191 196 202 204 207 209 210 215 219 223 222 217 215 213 211 211 209 203 199 200 195 189 185 180 177 177 177 178 170 165 167 167 173 169 157 152 145 140 138 131 132 135 131 129 128 129 125
199 212 220 207 196 193 188 185 185 184 183 185 187 189 191 196 201 203 205 208 211 212 214 217 220 217 210 206 204 203 206 207 203 199 197 195 192 188 182 177 177 180 182 174 170 171 169 177 176 161 153 148 146 142 131 136 136 124 119 120 119 117
205 218 217 202 193 188 182 180 179 180 182 186 191 195 198 201 204 206 208 208 207 209 210 211 214 212 205 200 198 199 202 201 199 198 197 195 191 189 185 181 178 178 185 183 177 176 173 174 175 168 162 155 150 149 146 145 136 121 119 121 117 116
208 213 204 194 188 181 178 180 179 178 182 187 192 196 200 202 207 209 209 206 206 210 210 208 209 205 199 197 197 198 198 195 194 196 199 194 187 187 185 182 181 177 182 191 187 181 177 174 174 172 170 164 160 178 168 154 142 130 127 124 120 120
199 198 189 181 179 178 179 180 180 181 184 188 190 192 196 200 204 206 205 204 205 205 202 200 199 195 194 196 196 195 193 189 189 194 197 191 182 183 184 182 182 178 178 189 193 187 180 176 177 176 177 177 179 203 183 167 158 149 139 131 129 127
186 183 178 175 177 179 180 179 181 184 185 187 188 189 192 192 194 197 198 197 197 194 191 188 187 187 191 196 195 192 190 190 193 192 188 185 181 179 183 186 186 180 177 183 191 193 185 180 184 183 183 187 187 194 190 183 174 165 152 141 138 134
177 178 176 177 179 178 178 179 181 183 183 184 185 188 188 185 187 189 189 190 190 188 186 183 180 179 180 186 188 189 192 195 196 191 183 182 183 182 185 190 189 185 183 184 192 197 193 191 193 190 187 190 187 175 187 190 187 182 166 147 146 145
177 179 179 180 178 176 177 180 181 181 182 182 183 186 185 183 185 185 186 189 187 186 185 180 177 173 170 173 180 184 186 189 192 191 185 186 190 190 190 192 191 190 189 190 195 199 200 202 201 199 196 196 195 184 187 194 195 194 180 156 151 150
179 181 181 181 178 178 179 179 181 181 180 183 185 185 184 184 184 184 185 187 186 186 182 180 177 170 169 169 170 175 173 176 184 188 190 193 194 194 196 194 191 191 191 192 196 197 199 203 202 203 203 204 207 200 193 201 206 202 190 168 154 151
180 182 182 182 181 182 182 180 180 178 179 186 187 184 183 183 181 179 178 179 183 183 177 175 175 172 174 172 168 168 164 167 175 181 188 189 189 194 195 194 194 193 193 195 196 197 200 203 203 203 206 213 215 209 199 210 219 210 198 190 169 156
182 182 184 184 183 183 183 179 175 174 177 181 181 178 178 176 171 165 159 158 162 164 163 163 166 170 176 177 180 180 170 162 162 169 177 179 185 194 189 188 192 190 192 198 199 200 203 205 206 206 208 216 219 209 193 203 223 214 200 197 183 163
183 184 184 184 184 184 181 175 171 172 172 170 170 169 169 166 160 154 148 146 148 148 150 153 159 167 171 175 184 191 186 172 161 160 166 171 179 187 186 188 190 184 187 198 199 200 204 205 206 205 205 208 211 204 188 184 201 209 202 196 189 175
183 185 186 185 185 182 177 173 172 172 168 164 165 164 163 161 157 152 146 143 143 143 145 145 154 166 171 172 172 181 185 177 167 161 161 164 167 176 186 190 184 176 179 185 186 192 198 202 202 199 202 202 200 196 185 175 174 187 198 195 191 186
185 187 188 186 184 180 177 176 175 173 167 165 166 164 163 160 157 152 145 141 141 143 142 137 150 164 167 170 164 165 173 173 172 171 170 171 168 176 190 190 181 177 181 184 186 190 194 199 200 199 202 202 197 192 181 172 169 169 181 184 179 186
187 189 189 186 184 182 181 181 180 177 171 170 170 167 164 161 159 155 148 146 143 141 141 137 151 161 160 167 167 164 168 172 177 179 182 186 185 186 190 191 190 188 191 191 189 192 197 200 200 202 204 200 194 189 180 173 169 164 168 169 165 172